Location: Newark
(44.9333°N, 0.5667°E)
Time: 00:01:09
(UTC+00:00)

N. Korean satellite - Pass Details

Date: 18 December 2019
Orbit: 454 x 507 km, 97.2° (Epoch: 21 January)

Event Time Altitude Azimuth Distance (km) Brightness Sun altitude
Rises 06:17:17 0° 5° (N) 2,518 10.0 -12.4°
Reaches altitude 10° 06:19:24 10° 359° (N) 1,629 9.0 -12.0°
Maximum altitude 06:22:43 42° 287° (WNW) 671 6.8 -11.5°
Drops below altitude 10° 06:25:58 10° 216° (SW) 1,596 9.0 -11.0°
Sets 06:28:02 0° 209° (SSW) 2,460 10.1 -10.6°
